Weather Roundup
Issued by NWS Chicago, IL

Home | Current Version | Previous Version | Graphics & Text | Print | Product List | Glossary On
Versions: 1 2 3 4 5 6 7 8 9 10 11 12 13 14 15 16 17 18 19 20 21 22 23 24 25 26 27 28 29 30 31 32 33 34 35 36 37 38 39 40 41 42 43 44 45 46 47 48 49 50
776
NZUS59 KLOT 230103
HRRLOT

CHICAGO AREA WEATHER ROUNDUP
NATIONAL WEATHER SERVICE CHICAGO/ROMEOVILLE IL
800 PM CDT TUE AUG 22 2017

NOTE: "FAIR" INDICATES FEW OR NO CLOUDS BELOW 12,000 FEET WITH NO
SIGNIFICANT WEATHER AND/OR OBSTRUCTIONS TO VISIBILITY.

* THESE STATIONS ARE NOT UNDER NWS QUALITY CONTROL. THEY ALSO MAY NOT
  REPORT WEATHER SUCH AS PRECIPITATION OR FOG.

ILZ005-006-012>014-019>023-230200-
NORTHEAST ILLINOIS

CITY           SKY/WX    TMP DP  RH WIND       PRES   REMARKS
OHARE          PTCLDY    73  48  41 NW14      29.95R
MIDWAY         PTCLDY    74  51  44 NW15      29.95R
AURORA         CLEAR     63  56  78 W6        29.98R
LANSING*       PTCLDY    73  47  40 NW10G16   29.95R
JOLIET*        CLEAR     71  57  60 CALM      29.97R
WAUKEGAN       CLEAR     68  52  56 NW5       29.95R
DUPAGE AIRPORT CLEAR     68  52  56 NW6       29.96R
WHEELING       CLEAR     71  52  50 NW12      29.97R
MORRIS*        CLEAR     65  58  79 W6        29.97R
NORTHERLY ISL    N/A     74  50  42 NW7         N/A
$$

WIZ051-052-058>065-066-070>072-230200-
SOUTHEAST WISCONSIN

CITY           SKY/WX    TMP DP  RH WIND       PRES   REMARKS
MILWAUKEE      PTCLDY    72  49  44 NW10      29.94S
KENOSHA*       CLEAR     66  50  56 NW7       29.96R
RACINE*        CLEAR     69  50  50 NW3       29.97R
WAUKESHA       CLEAR     64  48  55 W9        29.97R
$$

INZ001>003-010>013-019-020-230200-
NORTHWEST INDIANA

CITY           SKY/WX    TMP DP  RH WIND       PRES   REMARKS
GARY*          PTCLDY    73  48  40 NW8G20    29.95R
MICHIGAN CITY* NOT AVBL
RENSSELAER*    NOT AVBL
VALPARAISO     PTCLDY    70  61  73 CALM      29.95R
$$

LMZ740>746-230200-
SOUTHERN LAKE MICHIGAN

STATION/POSITION TIME  SKY/WX   TEMP WIND        PRES    VSBY
                                AIR  DIR/SP/G
                 (UTC)          (F)  (DEG/KT/KT) (MB)    (MI)
HARRISON CRIB    0010            76  320/ 18/ 19   N/A
BURNHAM HARBOR   NOT AVBL
CALUMET HARBOR   0030            74  310/  8/ 12 1013.3R
BURNS HARBOR     0040            74  340/ 16/ 21 1014.2R
MICHIGAN CITY    0040            73  330/ 20/ 22   N/A
$$

ABBREVIATIONS USED IN REMARKS
   TC - TEMPERATURE IN CELSIUS
  WCI - WIND CHILL INDEX
   HX - HEAT INDEX
  VSB - VISIBILITY
$$




USA.gov is the U.S. government's official web portal to all federal, state and local government web resources and services.